Main page
METAR-TAF:

METAR-TAF

Airports :

Hamilton Municipal Airport

Hamilton, Texas, United States

latitude: 31-39-57N, longitude: 098-08-55W, elevation: 1299 ft

Current weather observation

The report was made 18 minutes ago, at 22:55 UTC
Wind 12 mph from the West
Temperature 68°F
Humidity 23%
Pressure 29.75 in. Hg
Visibility: 10 miles
Clear sky

METAR: KMNZ 252255Z AUTO 28010KT 10SM CLR 20/M02 A2975 RMK AO2 T02021019

Time: 16:13 (23:13 UTC)


TAF: missing

Weather observations and forecasts of more than 4000 airports (METAR and TAF reports).

The available stations are represented by yellow and red dots on the map.

Hover mouse over dot to see the name of the station.

Then click to see weather observations and forecasts.

To change the map : click on the green buttons with a black cross to zoom in, on the green button with a dash to zoom out, or on the green arrows for adjacent maps.


METAR-TAF: